User: anonymous   Login
Location: Unspecified
(40.7945°N, 111.1337°W)
Time: 13:05:04
(UTC-06:00)
Language:

Transit 4A - Orbit

View from above orbital plane
View from above orbital plane
View from above satellite
View from above satellite

Ground track
Ground track

The orbit data is extracted from the following two-line orbital elements,

1   116U 61015A   19168.91395267 -.00000066 +00000-0 +83783-5 0  9995
2   116 066.8106 021.8032 0082744 265.5400 093.6223 13.91753875940951
Epoch (UTC): 17 June 2019 21:56:05
Eccentricity: 0.0082744
inclination: 66.8106°
perigee height: 862 km
apogee height: 983 km
right ascension of ascending node: 21.8032°
argument of perigee: 265.5400°
revolutions per day: 13.91753875
mean anomaly at epoch: 93.6223°
orbit number at epoch: 94095

The dashed part of the orbit path shows where the satellite is in the earth's shadow,  

DLR